NOAA 16 DEB, 41302

Orbit data source: Space-Track

NOAA 16 DEB, 41302 is space debris in SSO originally from a launch on Thu, 21 Sep 2000 UTC launched from the Air Force Western Test Range (AFWTR). Debris objects in space refer to the collection of defunct objects orbiting the Earth. Examples of debris include non-operational satellites, rocket bodies, and fragments generated from explosions, collisions, or faulty payload assembly.

Loading next visibility...
Identifier
41302, 2000-055HE
Orbit
SSO
Country
Flag of USUS
Related business
Manufacturer
Unknown
Mission
Spacecraft
Bus & Motor
Unknown
Mass
Unknown
Launch date (UTC)
2000-09-21 (25 years ago)
Launch vehicle
Unknown
Launch site
Air Force Western Test Range (AFWTR)
Object type
Payload
Rocket body
Debris
Shape & HBR
Unknown shape, 0.1 m
Radar Cross Section
Small (<0.1 m²)

Expand to show TLE details & history
Last TLE update: 2 days ago

TLE from 2 days ago
0 NOAA 16 DEB
1 41302U 00055HE  25295.10398257  .00005894  00000-0  26062-2 0  9992
2 41302  98.7272 353.8346 0022526 175.3017 184.8377 14.23427732505115
Epoch: 2025-10-22T02:29Z
TLE epoch observation values (Epoch: 2025-10-22T02:29:44.094Z)
Latitude
0.00002°
Longitude
-74.38151°
Altitude
832.849 km
Speed
7.428 km/s
True Right ascension
23h 35m 20s
True Declination
0° 00' 00"
Sunlit
Object was in full shadow at epoch
Visualization orbit readout
Latitude
Unknown
Longitude
Unknown
Altitude
Unknown
Speed
Unknown
Apparent Right ascension
Unknown
Apparent Declination
Unknown
Sunlit
N/A
Visualization observer readout
Local Sidereal Time
01:23:30
Azimuth
Unknown
Elevation
Unknown
Doppler factor
Unknown
Orbital elements
Apogee altitude
827.133 km
Perigee altitude
794.744 km
Semi-major axis
7,189.076 km
Eccentricity
0.00225
Inclination
98.7272°
RAAN
353.8346°
Arg. of periapsis
175.3017°
True anomaly
184.81599°
Mean anomaly
184.8377°
Eccentric anomaly
184.82684°
Mean motion
3.56069 °/min
Orbital period
101.1 mins
BSTAR
0.0026062
Loading maneuver chart data...
Computing Atmospheric mass density...
Loading historical data...
Loading historical data...
Loading historical data...
Loading historical data...
Loading historical data...
Loading historical data...
Loading historical data...

Documentation

Showing up to 5 results
|